Flag for Norway Weather past 2 weeks in Sandefjord, Norway

Now
43 °F

Passing clouds.


Feels Like: 35 °F
Forecast: 41 / 46 °F
Wind: 15 mph from Southwest

Location: Torp


UV Index: 0 (Low)

Visibility: N/A


Pressure: 30.09 "Hg

Humidity: 87%

Dew point: 39 °F

Location of SandefjordLocation

Historic Weather in Sandefjord

°F

Sandefjord temperature yesterday

Maximum temperature yesterday: 54 °F (at 1:20 PM)
Minimum temperature yesterday: 36 °F (at 3:20 AM)
Average temperature yesterday: 44 °F

Past Weeks' High & Low Weather Summary

 TemperatureHumidityPressure
High59 °F (Apr 7, 12:50 PM)100% (Apr 5, 3:50 PM)30.33 "Hg (Apr 5, 3:50 PM)
Low28 °F (Apr 5, 6:20 AM)26% (Apr 15, 5:20 PM)29.39 "Hg (Apr 13, 4:50 AM)
Average42 °F74%29.86 "Hg
* Reported Apr 2 12:20 AM — Apr 17 12:20 AM, Sandefjord, Weather by CustomWeather, © 2014

Note: Actual official high and low records may vary slightly from our data, if they occured in-between our weather recording intervals... More about our weather records

Advertising

Historic Weather Conditions — Data for Previous 24 hours

 ConditionsComfort  
Time TempWeatherWind HumidityBarometerVisibility
12:20 AM
Apr 17
43 °FPassing clouds.16 mph87%30.09 "HgN/A
11:50 PM
Apr 16
43 °FClear.14 mph87%30.12 "Hg10 mi
10:50 PM45 °FClear.10 mph81%30.15 "Hg10 mi
10:20 PM45 °FClear.14 mph81%30.15 "Hg10 mi
9:50 PM46 °FClear.14 mph76%30.15 "Hg10 mi
9:20 PM45 °FSunny.8 mph81%30.15 "Hg10 mi
8:50 PM45 °FSunny.9 mph81%30.15 "Hg10 mi
8:20 PM46 °FSunny.10 mph76%30.15 "Hg10 mi
7:50 PM46 °FSunny.15 mph76%30.15 "Hg10 mi
7:20 PM46 °FSunny.15 mph76%30.15 "Hg10 mi
6:50 PM48 °FSunny.13 mph71%30.15 "Hg10 mi
6:20 PM46 °FSunny.16 mph76%30.18 "Hg10 mi
5:50 PM48 °FSunny.15 mph66%30.18 "Hg10 mi
5:20 PM50 °FSunny.14 mph62%30.18 "Hg10 mi
4:50 PM50 °FSunny.16 mph54%30.21 "Hg10 mi
4:20 PM52 °FSunny.17 mph50%30.21 "Hg10 mi
3:50 PM50 °FSunny.16 mph54%30.21 "Hg10 mi
3:20 PM50 °FSunny.16 mph50%30.21 "Hg10 mi
2:50 PM52 °FSunny.16 mph44%30.24 "Hg10 mi
2:20 PM50 °FSunny.13 mph47%30.24 "Hg10 mi
1:50 PM52 °FSunny.13 mph44%30.24 "Hg10 mi
1:20 PM54 °FPassing clouds.10 mph41%30.24 "HgN/A
12:50 PM52 °FSunny.12 mph38%30.24 "Hg10 mi
12:20 PM50 °FPassing clouds.10 mph37%30.24 "HgN/A
11:50 AM48 °FPassing clouds.8 mph40%30.27 "HgN/A
11:20 AM48 °FSunny.10 mph40%30.27 "Hg10 mi
10:50 AM48 °FPassing clouds.8 mph43%30.27 "HgN/A
10:20 AM46 °FSunny.8 mph46%30.27 "Hg10 mi
9:50 AM43 °FSunny.7 mph57%30.27 "Hg10 mi
9:20 AM43 °FSunny.8 mph53%30.30 "Hg10 mi
8:50 AM41 °FSunny.7 mph57%30.30 "Hg10 mi
8:20 AM41 °FSunny.3 mph53%30.30 "Hg10 mi
7:50 AM37 °FSunny.5 mph70%30.30 "Hg10 mi
7:20 AM37 °FSunny.6 mph65%30.30 "Hg10 mi
6:50 AM36 °FClear.3 mph65%30.30 "Hg10 mi
6:20 AM37 °FPassing clouds.3 mph60%30.30 "HgN/A
5:50 AM37 °FClear.3 mph60%30.30 "Hg10 mi
5:20 AM36 °FOvercast.3 mph70%30.30 "HgN/A
4:50 AM36 °FOvercast.No wind65%30.30 "HgN/A
4:20 AM37 °FOvercast.1 mph56%30.30 "HgN/A
3:50 AM36 °FPartly cloudy.2 mph60%30.30 "HgN/A
3:20 AM36 °FPassing clouds.1 mph65%30.33 "HgN/A
2:50 AM37 °FPassing clouds.2 mph52%30.33 "HgN/A
Weather by CustomWeather, © 2014

See weather overview